Weather in Lukomo

Russia / Pskov Oblast     57°55′09″N   30°02′07″E
temp.,
°C
wind,
m/s
gust,
m/s
humid.,
%
clouds,
%
prec.,
mm/h
press.,
hPa
HPBL,
m
29 november, mon
mon2900:00−4ene249792 0.0 1006130
03:00−3ene3696100 0.1 1006239
06:00−4ene4996100 0.1 1005346
09:00−4ne4109697 0.1 1004362
12:00−3ne51294100 0.1 1001401
15:00−3ne51293100 0.4 997470
18:00−3ne51396100 2.4 993486
21:00−2ne51295100 6.1 988439
30 november, tue
tue3000:000ne51198100 1.4 984415
03:00+1ne3999100 2.0 980342
06:00+1nne26100100 1.6 976266
09:00−2nw4898100 3.4 975291
12:00−3wnw51296100 2.9 975492
15:00−3wnw71395100 5.3 975831
18:00−4wnw71393100 1.3 9771025
21:00−4w61287100 1.7 9791095
1 december, wed
wed100:00−5w51289100 0.1 981968
03:00−6w51290100 0.1 983756
06:00−7wsw5129097 0.0 985604
09:00−7w5139190 0.1 987592
12:00−5w41190100 0.1 9891074
15:00−4w41089100 0.3 991908
18:00−6wsw4109264 0.1 993434
21:00−10wsw3109422 0.1 994216
2 december, thu
thu200:00−12sw2698100 0.0 99593
03:00−14s1110093 0.0 99416
06:00−7se2696100 0.0 992152
09:00−5ese3996100 0.4 990341
12:00−3ese41095100 1.1 989560
15:00−2ese3897100 2.1 987438
18:00−2se3998100 2.4 986400
21:000sw51298100 3.4 987757
3 december, fri
fri300:000ssw4119199 0.3 988735
03:00−1s4119793 0.6 988726
06:00−1s41297100 0.8 989852
09:000s51391100 1.2 989944
12:000s61489100 0.3 9891271
15:00−1ssw71490100 0.8 9891307
18:00−2sw71395100 1.1 9901002
21:00−3wsw71495100 2.5 991914